User: anonymous   Login
Location: Oshawa
(43.9000°N, 78.8670°W)
Time: 07:33:45
(UTC-04:00)
Language:

Iridium 54 - Orbit

View from above orbital plane
View from above orbital plane
View from above satellite
View from above satellite

Ground track
Ground track

The orbit data is extracted from the following two-line orbital elements,

1 25171U 98010C   16179.38464653  .00000126  00000-0  37956-4 0  9990
2 25171  86.3979 138.7298 0002218  86.5841 273.5608 14.34218949961072
Epoch (UTC): 27 June 2016 09:13:53
Eccentricity: 0.0002218
inclination: 86.3979°
perigee height: 776 km
apogee height: 779 km
right ascension of ascending node: 138.7298°
argument of perigee: 86.5841°
revolutions per day: 14.34218949
mean anomaly at epoch: 273.5608°
orbit number at epoch: 96107

The dashed part of the orbit path shows where the satellite is in the earth's shadow,  

DLR